Location: S�tio Afonso Gruber
(26.1760°S, 49.5250°W)
Time: 23:20:03
(UTC+00:00)

Cosmos 1844 Rocket - Pass Details

Date: 07 June 2020
Orbit: 826 x 843 km, 71.0° (Epoch: 10 July)

Event Time Altitude Azimuth Distance (km) Brightness Sun altitude
Rises 09:08:51 0° 312° (NW) 3,353 5.5 -11.6°
Reaches altitude 10° 09:11:43 10° 298° (WNW) 2,428 4.7 -11.0°
Maximum altitude 09:16:09 24° 245° (WSW) 1,656 3.6 -10.0°
Drops below altitude 10° 09:20:39 10° 191° (SSW) 2,454 4.8 -9.1°
Sets 09:23:35 0° 177° (S) 3,397 5.7 -8.5°
